GFSSE_250_rhum_069.txt.gz
RH
14 15 15 16 17 16 16 17 16 16 17 18 19 18 17 16 17 16 16 18 18 18 20 21 21 20 18 22 22 22 24 28 28 33 35 35 34 42 40 43 42 35 35
14 15 14 18 21 21 20 22 21 21 22 22 22 23 21 20 19 18 19 20 21 22 25 23 23 26 24 24 25 26 26 27 30 40 39 53 51 41 46 50 52 40 35
14 15 16 17 18 19 22 24 24 23 23 24 25 25 24 24 24 24 23 25 25 24 25 26 26 27 30 32 32 32 36 41 48 47 55 57 49 52 47 63 42 32 28
14 14 14 15 15 18 20 21 24 26 24 24 25 28 29 32 33 31 29 27 26 24 24 28 28 29 43 56 51 50 54 56 64 64 61 55 46 60 50 41 34 26 26
14 14 14 16 19 19 21 19 20 24 26 25 24 30 30 35 32 31 29 27 28 23 28 49 61 66 60 69 73 58 53 62 70 59 60 52 41 31 29 28 26 32 42
34 22 19 18 17 18 21 18 21 23 28 28 27 33 35 37 32 35 32 40 40 54 84 96 100 78 88 100 75 75 73 70 65 55 48 43 31 30 29 30 38 44 52
47 38 35 34 32 32 31 33 44 41 37 39 37 36 43 35 41 52 62 74 80 86 85 84 94 88 99 100 94 79 70 65 53 72 67 40 36 35 43 41 58 90 87
49 47 49 57 79 89 94 98 93 56 59 56 73 85 71 61 68 100 96 91 97 98 100 99 92 90 89 73 76 65 48 47 51 35 46 54 63 72 66 85 92 90 69
57 83 98 91 100 100 96 90 84 56 76 79 91 88 98 100 92 100 100 100 98 98 87 72 74 74 85 86 72 48 47 61 72 52 69 75 96 100 100 84 83 57 45
38 73 100 100 100 100 88 92 100 100 91 100 100 97 100 100 100 100 100 100 100 100 92 100 93 85 96 74 41 57 69 71 82 99 74 71 82 78 75 63 59 43 34
43 97 100 92 100 100 93 100 100 100 100 100 100 100 100 100 100 100 100 100 100 100 98 99 93 97 96 55 74 100 96 72 80 59 62 60 75 78 74 50 34 30 26
47 62 100 100 100 84 100 100 100 100 100 100 100 100 100 100 100 94 99 91 93 100 100 96 100 79 81 92 85 88 96 72 58 56 72 70 68 62 42 36 27 24 26
100 100 94 100 100 99 100 100 100 100 100 88 100 100 91 91 92 93 96 100 94 89 91 80 100 69 96 91 90 80 83 69 63 74 73 75 66 53 31 27 29 33 36
88 100 100 88 99 100 100 100 100 100 100 100 100 100 100 100 100 100 100 100 100 100 100 97 97 100 98 86 65 62 85 86 67 90 75 53 39 30 29 32 36 37 38
99 97 100 100 100 100 100 100 100 100 100 100 100 100 100 100 99 95 100 100 88 100 86 99 100 99 82 69 57 68 71 82 80 77 57 34 28 28 31 36 37 37 35
100 100 88 100 100 100 100 100 100 100 100 100 100 96 96 99 100 100 100 100 94 75 79 94 94 78 62 65 91 91 90 90 69 48 31 29 30 31 31 34 34 33 33
100 100 100 100 100 100 100 100 100 100 100 100 100 100 100 86 97 94 65 58 79 83 90 75 75 51 75 83 100 90 96 72 32 30 33 34 31 31 34 36 33 35 39
100 100 100 100 100 100 100 98 100 100 100 100 100 100 100 100 100 100 100 87 99 99 68 67 48 85 100 100 93 91 53 31 32 34 35 33 33 36 35 34 38 43 43
100 100 100 100 100 100 100 100 100 100 100 100 100 100 100 100 100 86 100 90 68 74 81 55 99 100 100 93 56 34 30 32 34 36 35 37 38 40 40 46 48 49 48
100 100 100 100 100 100 100 100 100 100 100 100 100 93 96 99 66 78 66 74 95 96 86 100 96 90 64 35 31 31 35 37 36 40 45 44 44 43 43 47 48 49 52
100 94 96 100 100 100 100 100 100 85 75 96 86 56 76 90 97 86 98 91 93 100 100 89 61 43 31 31 33 36 36 42 45 47 44 48 54 59 57 53 57 58 58
80 79 98 89 93 93 86 74 60 59 54 67 81 100 100 100 100 100 98 100 96 73 62 39 32 29 31 34 37 40 43 46 46 52 59 62 64 64 62 58 56 57 60
100 73 68 58 49 58 55 74 85 90 97 99 97 100 100 94 88 80 98 93 50 42 36 33 32 34 39 41 39 39 43 47 56 62 66 67 63 58 52 51 53 56 55
67 57 48 56 63 80 92 97 100 100 100 100 100 100 85 94 79 63 51 44 40 35 34 36 39 45 48 38 44 48 51 56 59 64 66 62 51 51 52 56 61 60 60
100 100 100 100 100 100 87 97 91 100 97 98 89 75 66 64 75 76 51 37 37 35 38 42 46 42 37 48 55 54 61 66 64 64 56 51 49 49 57 57 60 62 67
100 100 100 100 100 100 100 100 100 98 95 77 70 73 69 95 99 54 41 40 38 44 44 41 41 40 46 54 54 59 60 63 62 53 50 51 54 56 56 57 60 58 55

GFSSE_250_rhum_072.txt.gz
RH
16 18 21 21 21 20 20 18 17 17 16 16 16 17 17 17 17 18 19 19 18 18 17 16 16 16 18 19 20 19 20 20 16 16 17 18 21 27 26 28 31 38 37
17 18 20 21 22 22 23 21 20 20 21 21 22 22 21 21 22 22 22 23 21 21 20 19 18 19 20 21 21 19 19 20 19 21 23 30 32 37 40 40 43 41 35
17 17 20 22 20 20 23 23 23 23 26 27 27 29 29 31 35 30 26 26 25 23 23 23 23 23 25 26 22 22 22 24 28 33 37 41 53 48 47 46 42 38 39
17 17 18 19 20 19 22 21 21 24 29 30 31 31 31 31 33 31 29 30 27 27 28 28 27 25 26 28 28 26 36 32 39 62 65 68 67 60 43 36 37 40 34
22 22 20 18 18 19 19 19 21 23 26 30 31 34 37 35 36 33 30 29 27 27 28 31 30 31 32 39 41 42 59 72 85 75 74 63 51 40 38 38 34 34 34
18 21 20 16 18 18 17 19 20 22 26 31 34 36 37 35 37 36 35 30 32 28 30 33 29 65 51 70 78 93 92 80 86 84 66 51 41 37 39 36 38 38 35
16 14 16 16 19 18 18 23 20 21 25 27 35 39 45 48 39 35 47 50 34 36 48 64 78 88 100 90 87 86 77 82 83 67 51 39 31 40 38 41 58 43 31
48 46 30 28 46 49 31 24 27 33 34 31 32 37 31 34 34 36 45 56 76 88 85 92 96 94 87 78 85 84 84 77 62 47 40 33 38 43 51 49 43 32 48
97 75 70 75 92 98 100 95 68 46 42 38 40 66 59 52 57 82 85 98 76 99 100 99 90 95 92 100 96 79 81 69 59 48 35 40 60 67 77 54 50 62 60
100 100 100 100 100 100 100 100 100 78 78 72 89 96 90 100 100 100 100 100 100 99 100 100 100 100 99 99 93 87 65 54 48 50 61 62 71 87 77 70 62 61 59
100 100 100 100 100 100 100 95 100 98 100 100 100 100 100 100 100 100 100 100 100 100 100 100 100 100 100 97 60 48 56 68 81 81 80 72 60 65 53 47 65 48 46
82 100 100 100 100 100 99 100 100 91 99 96 100 100 100 100 100 100 100 100 100 100 100 97 93 100 90 52 70 100 100 100 100 93 72 56 44 52 69 71 62 48 28
49 89 100 100 97 100 96 100 96 100 100 100 100 100 100 100 100 91 100 94 98 100 100 100 93 99 71 65 58 74 66 94 100 61 49 59 72 77 80 56 36 27 26
99 100 100 100 100 100 100 100 100 100 100 100 100 100 100 100 100 100 100 100 98 99 96 79 99 70 63 52 61 71 82 71 59 50 72 71 83 81 64 30 28 30 29
48 100 100 90 100 100 100 100 100 100 100 100 100 100 100 95 84 100 100 100 100 97 97 88 86 69 69 73 76 87 64 46 52 78 85 84 66 53 29 30 31 33 34
48 100 100 100 100 100 100 100 100 100 100 100 100 100 100 100 100 98 99 100 93 86 100 85 76 72 82 93 99 70 77 63 97 93 82 72 39 32 32 33 36 38 40
85 100 100 100 100 100 100 100 100 100 100 100 100 100 100 100 100 100 100 94 87 100 100 99 99 100 100 100 96 62 84 78 82 73 53 31 30 34 38 42 43 44 47
88 100 100 100 100 100 100 100 100 100 100 100 100 100 100 100 99 94 94 66 73 84 100 100 96 78 96 84 68 97 90 80 56 44 30 31 36 39 42 46 48 47 45
100 97 89 100 100 100 100 100 100 100 100 100 100 100 100 92 87 84 81 84 100 100 90 82 94 99 100 100 100 86 70 55 34 30 33 37 39 41 45 44 46 49 47
100 100 100 100 100 100 100 100 100 100 100 100 99 100 100 95 93 82 98 97 72 93 99 100 100 81 96 100 70 46 36 31 30 34 36 39 40 45 46 49 51 51 52
100 100 100 100 100 100 100 100 100 100 100 98 100 100 100 100 82 83 99 74 100 100 100 97 65 90 89 47 41 38 32 30 30 36 44 42 48 50 52 52 52 55 60
92 100 100 100 100 100 100 100 100 100 100 100 100 100 90 65 60 55 80 96 100 100 96 93 75 57 46 41 38 32 29 29 38 44 42 50 51 52 54 56 65 66 57
100 87 92 83 85 94 100 100 97 99 99 88 87 73 58 51 77 100 100 100 98 95 79 66 70 51 42 39 36 34 36 37 39 41 49 56 55 56 60 66 58 54 53
100 98 95 78 66 61 63 76 60 52 46 42 41 84 100 85 88 100 94 87 75 70 68 84 61 43 40 35 39 45 45 49 48 53 54 50 51 62 62 57 55 51 56
65 65 50 63 74 64 46 53 38 55 85 100 100 98 69 58 66 86 79 68 74 67 83 67 45 44 44 45 47 49 50 49 54 51 50 50 57 60 57 52 54 57 59
100 100 79 77 92 100 100 100 100 100 94 98 97 98 99 94 89 73 64 77 97 90 82 51 47 47 48 54 53 47 45 49 45 48 44 54 60 60 55 51 52 53 50

GFSSE_250_rhum_075.txt.gz
RH
20 16 18 19 21 23 23 22 23 20 20 22 24 20 18 16 14 15 16 16 17 17 18 18 19 20 20 21 20 19 19 17 17 19 18 19 18 20 20 21 21 26 25
15 23 19 21 23 24 25 24 23 21 24 25 25 23 22 23 20 17 22 21 22 23 26 23 23 25 22 22 21 22 23 22 22 19 20 20 25 22 23 27 28 28 32
12 16 30 23 22 23 23 24 24 22 24 28 28 25 29 33 29 28 32 26 26 26 28 29 24 24 23 21 22 20 24 24 19 21 21 23 32 37 42 48 43 44 41
15 16 19 21 20 22 22 24 24 23 25 29 35 35 35 36 36 38 42 34 29 29 30 27 25 26 27 26 24 22 23 23 25 24 28 38 43 62 44 44 49 43 36
21 35 19 21 22 21 24 25 23 24 27 30 34 31 34 38 39 35 36 34 33 31 30 29 26 25 31 28 24 24 22 25 37 57 64 61 72 60 56 47 42 37 30
15 26 48 24 22 22 24 22 22 24 26 30 34 32 32 35 35 34 34 35 36 36 36 35 32 30 34 33 26 29 56 63 65 67 73 77 59 50 52 44 43 34 32
12 14 33 42 30 21 19 21 22 23 26 28 33 35 34 35 35 32 30 34 36 37 37 43 43 40 40 43 43 56 78 90 70 74 72 59 48 45 42 43 38 42 43
74 73 43 31 20 26 26 29 32 39 42 34 31 32 34 29 30 27 27 31 34 43 53 61 65 64 75 73 67 81 80 88 79 74 76 52 41 41 39 45 50 56 53
100 99 100 100 99 53 41 48 70 84 86 55 40 35 34 31 28 34 44 57 56 60 98 90 98 96 100 100 96 97 100 100 96 69 59 42 36 66 87 88 87 55 37
100 100 100 100 100 100 100 100 100 92 77 61 51 42 48 54 76 72 90 100 100 99 86 100 100 92 100 100 100 100 100 100 81 58 38 50 67 65 78 82 74 41 41
100 100 100 100 100 100 100 100 100 100 100 96 88 82 100 100 98 100 100 100 100 100 99 91 99 100 100 98 97 99 96 87 53 44 45 51 67 73 49 39 39 52 55
99 99 100 100 100 100 100 100 100 100 100 100 100 100 100 100 100 100 100 100 100 100 100 100 98 87 94 100 89 83 77 72 64 45 55 68 80 71 55 45 53 68 60
100 100 100 100 96 100 100 97 100 100 100 100 100 100 100 100 100 100 100 94 100 100 80 72 79 99 100 94 72 99 100 84 62 77 80 87 90 61 48 74 90 71 60
100 100 100 100 100 100 100 92 100 100 100 100 100 100 100 100 100 90 100 100 100 99 98 90 100 97 79 100 78 58 80 67 98 100 100 74 48 49 82 76 60 49 37
83 100 100 100 100 96 96 100 100 100 100 100 100 100 100 100 100 100 98 94 82 92 97 100 100 97 80 66 98 100 99 94 100 86 67 56 54 81 76 61 48 38 30
100 100 100 100 100 100 100 100 100 100 100 100 100 100 100 100 100 100 100 100 100 100 100 100 84 75 84 90 88 91 100 95 64 53 74 89 89 53 43 42 30 28 30
68 86 100 100 100 100 100 100 100 100 100 100 100 100 100 100 100 100 100 100 100 100 100 100 100 96 83 80 100 100 92 72 94 92 97 75 50 36 33 28 28 32 38
58 61 100 100 100 100 100 100 100 100 100 100 100 100 100 100 100 100 100 100 100 100 99 96 98 71 84 100 72 74 100 98 84 81 62 44 36 33 27 31 34 36 39
90 100 100 100 100 100 100 100 100 100 100 100 100 100 100 100 100 100 100 100 96 90 85 67 81 100 98 100 100 100 96 64 64 55 50 40 35 32 29 31 36 36 42
94 100 100 100 100 100 100 100 100 100 100 100 100 100 100 100 100 100 98 100 87 86 70 89 86 89 100 100 100 95 80 67 55 52 41 35 34 36 38 41 40 42 52
100 100 100 100 100 100 100 96 100 100 100 100 100 100 100 100 100 100 100 99 86 93 99 84 86 96 100 100 87 72 72 65 52 43 37 35 37 37 39 43 47 55 55
100 100 100 100 100 100 100 97 99 100 100 100 100 100 97 95 83 76 100 98 100 86 68 58 68 90 86 76 68 59 61 58 42 43 48 57 58 57 48 46 56 59 57
97 100 100 100 100 100 98 92 100 100 100 100 100 100 98 96 99 100 97 90 90 82 61 77 89 79 74 72 62 60 64 54 42 39 37 43 50 52 52 56 55 56 53
79 94 100 100 100 100 100 100 100 100 100 100 99 100 100 93 94 65 65 62 90 87 75 66 69 73 64 56 78 92 72 51 45 47 49 45 41 46 52 60 58 54 53
65 61 68 92 100 100 99 92 85 77 70 65 68 61 58 57 76 68 70 73 66 69 91 81 72 64 77 86 88 88 55 53 59 56 62 61 57 60 61 54 52 55 46
98 61 51 51 53 59 50 54 66 61 56 50 91 98 76 64 76 65 56 68 81 76 65 59 63 85 99 100 90 58 55 59 54 59 51 50 52 57 56 58 53 45 48

GFSSE_250_rhum_078.txt.gz
RH
78 100 85 32 13 14 15 16 18 21 21 22 25 27 23 21 18 18 16 15 15 15 14 15 14 15 15 17 18 16 15 17 19 20 18 18 18 14 13 14 16 16 17
92 89 100 76 30 14 17 19 22 25 29 30 34 33 28 24 22 19 22 21 18 20 18 19 19 20 20 18 18 19 20 18 19 18 18 17 14 14 15 17 15 18 21
100 93 34 10 40 16 17 20 24 26 31 31 32 31 27 25 23 24 27 28 29 24 27 28 27 26 22 24 21 20 21 22 22 21 20 19 17 15 17 22 25 34 36
100 100 92 46 10 20 19 20 22 26 32 36 36 28 24 21 24 28 32 30 31 35 33 33 33 30 27 22 24 25 24 24 22 20 19 19 20 22 31 44 48 47 47
100 100 97 96 75 41 14 26 22 21 26 29 27 24 27 30 32 35 34 33 37 38 38 35 32 28 28 29 27 29 27 26 19 21 23 27 32 49 58 54 50 43 38
99 95 73 58 59 66 54 15 28 30 26 26 27 28 30 32 33 36 41 38 42 40 34 32 30 31 31 32 27 28 25 29 27 28 38 54 50 55 56 54 38 42 36
99 82 81 60 33 30 27 22 17 28 34 27 26 28 30 32 31 33 36 40 39 35 33 30 28 30 28 30 31 28 27 34 43 45 60 68 76 68 72 52 47 35 40
85 94 82 98 97 98 34 25 43 25 23 32 30 30 33 29 28 28 28 31 32 30 31 28 31 30 31 39 36 39 40 50 70 94 87 76 86 82 66 56 39 41 45
95 92 65 100 100 82 100 60 28 37 39 36 34 34 28 29 28 28 26 26 29 29 34 34 36 39 49 51 67 64 73 84 100 98 99 93 86 62 56 40 38 45 49
100 100 99 100 100 100 100 80 77 53 46 38 70 67 52 46 45 41 37 32 44 52 76 86 60 75 69 93 100 68 73 99 97 97 76 66 52 64 62 50 56 73 95
100 100 100 100 100 100 100 99 100 100 100 100 100 100 100 96 86 73 71 78 89 92 81 83 84 84 99 80 92 100 100 94 81 75 52 88 100 97 45 70 95 97 59
100 100 100 100 100 100 100 100 100 100 100 100 100 100 100 100 100 97 100 98 100 100 100 100 100 100 100 91 68 76 79 74 63 69 99 74 64 74 79 100 81 55 49
100 100 100 100 94 100 100 100 100 100 100 100 100 100 100 100 100 100 100 100 100 100 100 100 94 100 100 88 90 71 56 64 88 79 71 92 100 100 100 68 59 59 78
92 100 100 100 100 100 100 99 100 100 100 100 100 90 96 100 100 100 100 100 100 100 95 97 100 82 82 76 74 83 90 78 74 62 70 88 100 98 78 76 77 64 72
100 100 100 100 100 100 100 100 100 96 100 99 100 100 100 100 100 100 100 92 100 94 95 86 100 100 86 94 100 78 81 78 94 90 100 100 63 60 88 78 64 55 52
100 100 100 100 100 99 100 100 100 100 92 100 100 100 100 100 100 100 100 100 100 100 100 95 89 92 94 100 100 100 100 100 74 96 100 82 97 97 71 60 58 47 41
100 100 100 100 100 100 100 100 100 100 100 100 100 100 100 100 100 100 100 100 100 100 100 100 100 99 100 100 100 85 82 71 89 74 84 100 85 86 58 51 50 44 36
80 95 100 98 100 100 100 100 100 100 100 100 100 100 100 100 100 100 98 99 100 97 97 97 97 99 88 68 67 76 96 96 72 78 96 72 73 57 60 46 39 32 32
58 52 50 80 100 100 100 100 100 100 100 93 98 100 100 100 100 100 100 95 99 100 100 100 100 100 99 94 96 100 100 98 92 80 68 68 53 58 45 43 37 34 34
44 46 62 100 100 100 100 100 100 100 100 86 99 100 100 100 100 100 100 100 100 100 100 100 98 93 96 100 100 100 92 72 61 61 59 61 62 50 55 47 36 39 47
90 88 88 100 100 100 91 100 100 100 100 100 100 100 100 100 100 93 99 100 100 100 100 97 96 97 87 100 100 93 74 53 52 71 64 51 46 57 58 52 54 54 53
97 99 100 100 100 100 97 80 100 95 99 100 100 100 100 100 100 100 100 100 94 89 81 77 78 90 98 94 79 52 48 62 71 66 63 67 85 93 68 56 55 66 69
78 96 100 100 100 100 93 79 99 100 100 100 100 100 100 100 100 83 100 95 97 95 87 96 98 97 87 88 71 47 67 64 52 52 60 68 80 69 56 67 72 65 54
100 100 96 100 100 100 100 100 100 100 99 87 92 100 100 100 100 100 100 100 95 88 79 100 89 60 50 42 56 65 68 61 60 75 74 76 72 52 48 53 63 64 60
94 81 88 75 97 100 100 100 100 100 100 100 100 100 96 100 100 89 84 81 100 76 66 58 64 70 58 63 59 60 63 76 79 85 97 98 62 68 66 60 53 53 48
76 74 73 59 86 96 100 100 100 100 98 97 93 92 91 87 82 71 78 56 49 52 54 59 60 71 64 57 68 71 85 100 100 98 94 64 60 64 64 66 61 50 45

GFSSE_250_rhum_081.txt.gz
RH
77 44 16 16 13 21 23 18 26 27 27 30 30 30 36 29 25 20 20 18 16 16 15 15 16 13 12 12 11 12 12 12 12 12 13 13 12 13 15 14 13 13 13
99 70 58 22 9 22 47 62 77 26 22 33 26 28 32 38 34 27 23 22 19 18 19 16 21 17 15 16 14 14 16 14 13 14 16 16 16 17 18 17 13 13 15
95 95 95 91 92 79 68 87 99 95 43 23 27 25 27 36 43 40 29 23 20 19 18 25 29 25 23 22 20 19 18 17 17 19 20 20 19 20 20 16 16 21 31
83 100 99 86 100 100 100 100 92 47 48 51 18 23 27 31 46 45 27 18 19 21 26 31 32 34 32 24 22 23 25 24 25 25 24 22 20 21 20 22 25 27 31
98 98 100 97 100 100 100 100 91 100 41 32 28 20 26 25 30 30 29 27 31 30 31 35 40 32 30 27 24 23 28 29 29 26 24 20 22 21 27 34 31 42 44
99 97 100 77 100 100 100 100 81 93 99 71 26 20 22 24 27 28 37 43 42 38 39 42 39 32 29 31 26 28 33 31 29 26 24 25 25 35 37 46 60 63 62
100 88 100 93 100 100 94 90 78 40 90 100 74 22 21 23 25 29 32 36 35 34 37 35 34 31 30 33 31 28 33 26 27 34 38 33 34 44 59 65 75 79 58
89 89 100 100 100 100 100 85 52 76 36 58 68 38 19 24 34 33 30 29 30 30 31 31 30 28 26 26 28 28 34 33 42 42 41 40 52 80 79 87 68 46 57
100 100 83 100 100 100 96 100 99 58 50 33 51 59 48 24 25 31 34 32 30 31 30 28 28 28 30 28 30 37 48 52 93 84 57 61 76 83 62 45 46 63 85
100 100 100 100 95 100 95 100 99 89 59 71 30 34 60 54 41 37 36 38 37 42 35 33 34 42 34 46 45 67 71 66 83 64 72 78 85 48 52 51 75 77 76
98 99 93 100 100 96 100 100 100 100 82 93 85 87 100 100 93 79 71 61 72 60 73 58 66 84 89 77 90 100 99 90 89 72 63 65 47 45 64 65 63 59 63
100 100 100 100 100 100 100 100 100 100 100 100 100 100 100 100 100 100 100 100 96 98 100 98 90 100 91 100 100 100 100 78 73 75 67 60 73 57 59 60 70 86 88
100 100 98 100 100 100 100 100 100 92 95 90 100 100 100 100 100 100 100 100 99 100 98 94 100 100 100 100 100 94 94 96 83 84 70 68 57 84 75 76 63 89 77
100 97 100 100 100 100 100 100 99 89 100 100 100 100 100 100 100 100 92 100 100 100 100 100 100 100 100 98 74 98 100 99 94 62 88 100 100 98 74 75 82 65 92
100 100 94 99 100 100 100 98 97 100 100 100 100 100 89 100 100 100 100 100 100 100 100 100 100 100 89 100 100 100 83 91 80 73 96 97 83 70 81 96 74 61 61
100 100 100 100 100 100 100 100 100 100 100 100 100 100 100 99 97 100 100 100 100 100 100 98 93 91 100 100 100 96 94 94 100 92 56 56 71 90 88 94 74 58 49
100 96 100 100 100 99 100 95 100 100 100 100 100 100 100 100 100 100 100 100 100 97 100 100 100 100 100 100 100 100 100 88 78 59 78 92 100 99 85 62 56 51 45
99 100 100 100 100 100 100 97 100 95 79 100 99 84 99 100 100 100 100 100 100 100 100 100 100 99 100 91 98 96 100 92 92 98 91 100 96 92 80 63 52 52 54
98 100 100 100 100 100 100 100 98 100 85 84 90 91 97 100 100 95 98 100 100 100 100 100 100 96 97 92 100 100 100 95 99 100 100 98 95 78 57 54 58 53 53
100 100 100 100 100 100 100 100 100 100 100 100 87 92 90 100 100 100 90 100 96 93 84 93 97 94 99 100 99 100 92 97 100 97 98 92 75 58 52 59 56 56 57
94 86 72 78 100 100 100 100 100 100 100 100 100 100 100 100 94 90 88 84 92 100 86 79 86 81 100 99 100 100 100 100 100 96 78 60 54 56 57 61 68 70 67
57 59 55 54 80 100 99 88 83 99 96 100 100 100 99 100 100 100 98 97 100 100 100 100 100 92 94 100 100 100 100 100 96 73 64 54 66 70 59 75 72 70 93
43 49 54 54 53 50 67 63 85 99 100 100 100 89 92 99 86 87 78 87 95 96 92 98 100 100 100 100 100 98 83 70 55 50 55 59 62 62 64 76 99 100 100
49 47 35 34 36 60 60 83 83 90 97 92 85 93 94 99 99 100 100 100 100 100 100 100 100 100 94 89 86 76 56 48 41 51 47 55 58 61 73 68 78 82 83
79 73 78 76 79 100 100 100 98 100 100 100 100 100 100 100 100 100 100 100 100 100 100 100 99 89 79 60 54 54 52 50 53 60 76 72 67 69 62 59 66 78 79
92 95 100 100 100 84 90 94 92 100 100 100 100 100 100 100 100 100 100 100 99 95 83 76 66 58 57 46 40 52 58 60 65 76 84 100 100 100 98 84 72 61 53

GFSSE_250_rhum_084.txt.gz
RH
12 18 29 38 50 62 100 79 53 45 21 25 48 51 47 49 93 78 72 98 100 86 55 38 28 26 20 16 15 14 15 15 13 12 13 12 13 16 14 12 14 12 14
13 19 19 53 45 62 40 53 43 21 21 25 47 89 71 50 42 39 50 87 74 63 40 34 23 22 21 20 19 19 21 19 17 16 16 16 15 14 16 18 16 16 15
10 21 32 38 40 70 81 78 93 38 16 33 33 36 25 23 41 44 42 41 47 48 58 37 22 22 20 19 26 23 23 22 19 20 21 21 20 20 21 21 20 20 18
16 15 46 94 100 100 100 100 100 100 78 100 100 100 89 77 46 26 41 43 34 31 32 38 31 24 19 23 25 27 28 23 24 23 25 25 26 23 24 25 21 21 23
13 46 85 88 91 100 100 100 82 83 100 100 97 98 100 67 75 88 36 37 32 27 26 30 32 32 37 37 29 26 28 29 29 27 26 25 26 27 26 26 22 32 38
47 70 83 100 100 90 74 91 100 100 100 100 68 58 81 72 40 66 76 31 28 29 27 31 36 38 37 44 38 32 35 28 30 28 26 26 29 27 28 33 42 41 54
100 90 64 79 73 99 100 100 100 100 100 100 51 34 56 86 66 43 49 28 25 28 32 33 31 32 32 39 36 30 30 29 28 27 26 27 30 36 33 38 56 79 79
99 92 100 97 100 99 94 100 100 100 100 100 79 40 33 43 86 77 34 25 22 22 24 27 28 29 29 32 31 27 29 30 31 34 36 42 40 66 53 54 65 75 74
100 91 100 100 100 80 98 100 100 100 100 93 68 46 44 35 49 68 59 31 22 24 32 38 37 33 30 30 30 26 31 48 48 51 40 56 61 65 77 63 58 56 42
96 100 100 100 100 97 100 93 100 94 100 100 69 53 46 34 44 52 69 59 39 28 26 35 41 36 35 34 42 55 52 54 46 52 65 86 98 92 67 59 55 46 42
100 100 100 100 100 99 100 100 100 100 100 91 56 47 73 68 56 40 59 69 60 57 54 51 50 67 79 63 50 56 72 63 74 100 100 99 91 69 67 62 47 40 38
100 100 100 100 98 100 100 99 100 100 100 97 92 86 66 84 80 79 80 88 86 96 100 100 100 97 76 74 71 94 87 100 100 100 90 85 91 89 96 72 45 60 76
100 100 100 100 100 100 100 100 100 100 100 97 99 78 100 84 99 98 81 68 83 85 99 89 81 69 89 95 99 100 100 100 100 92 65 83 90 66 48 60 81 92 58
100 100 100 100 100 100 100 100 100 100 100 88 87 96 99 91 100 96 77 71 81 86 81 82 82 93 100 100 100 100 100 100 80 92 100 72 51 62 63 84 87 61 69
92 100 100 100 100 100 100 100 98 99 100 100 100 96 96 73 100 94 59 54 83 93 97 78 81 90 86 99 99 80 91 77 76 79 68 73 96 100 98 63 56 87 92
99 100 100 100 100 100 100 100 100 100 100 100 100 88 91 91 84 79 63 63 62 73 97 100 93 86 95 78 54 77 93 100 98 100 100 99 76 67 93 94 98 100 100
100 100 100 94 100 100 100 100 100 100 100 100 100 86 82 97 100 100 96 99 91 96 96 99 100 100 100 100 100 100 100 100 100 100 87 94 87 94 95 98 100 100 94
100 98 90 99 98 100 100 100 100 100 100 100 100 99 73 79 96 100 100 100 100 78 78 83 90 95 100 100 100 100 100 96 84 89 93 88 100 95 98 100 98 82 74
94 100 100 92 100 100 100 98 100 100 100 100 93 95 96 95 89 81 87 100 96 92 97 99 94 98 100 100 96 84 66 67 100 100 99 90 92 100 100 94 86 74 68
100 100 100 99 91 100 100 100 100 100 86 65 77 84 96 86 84 80 59 58 66 78 82 83 95 96 90 81 78 86 98 74 68 83 100 100 99 93 95 90 90 74 59
100 100 100 100 100 87 79 81 81 82 75 100 100 100 95 100 100 97 79 72 65 68 68 100 100 100 83 74 70 77 100 85 100 100 100 100 100 99 90 69 63 60 58
100 100 100 100 100 100 92 100 100 100 100 90 100 100 100 100 100 100 100 100 100 99 78 96 96 82 72 71 75 92 100 100 100 100 98 82 86 75 62 58 43 55 80
84 100 100 100 100 100 100 100 100 100 97 100 100 100 100 100 100 100 89 97 100 100 91 87 86 87 100 100 100 100 100 100 99 100 96 82 69 67 60 55 69 86 86
64 99 100 100 100 100 100 100 99 80 77 79 94 100 100 100 87 91 98 99 100 100 100 100 100 100 100 100 100 100 100 99 87 77 69 67 49 64 63 66 81 80 76
82 96 91 82 86 83 83 78 75 74 69 76 82 100 100 100 100 100 100 100 100 98 100 94 75 98 100 100 100 86 76 67 70 56 64 70 66 63 66 77 63 57 63
75 75 64 37 34 50 52 63 73 74 88 96 100 100 100 100 100 100 100 100 100 100 100 100 100 99 99 95 84 76 83 82 85 74 72 70 64 53 45 43 48 45 51